Park Rapids, MN

12:26 AM CDT on April 25, 2017 (GMT -0500)
Park Rapids Municipal

Weather History for KPKD - September, 2013

Change the Weather History Date:

Thursday, September 19, 2013

  Actual Average Record
Temperature  
Mean Temperature 63 °F -  
Max Temperature 71 °F 67 °F 91 °F (1984)
Min Temperature 55 °F 44 °F 30 °F (1979)
Degree Days  
Heating Degree Days 2    
Growing Degree Days 13 (Base 50)    
Moisture  
Dew Point 64 °F    
Average Humidity 95    
Maximum Humidity 100    
Minimum Humidity 63    
Precipitation  
Precipitation 0.11 in - - ()
Sea Level Pressure  
Sea Level Pressure 29.70 in    
Wind  
Wind Speed 6 mph (West)    
Max Wind Speed 20 mph    
Max Gust Speed 23 mph    
Visibility 4 miles    
Events Fog , Rain    
Averages and records for this station are not official NWS values.
T = Trace of Precipitation, MM = Missing Value Source: NWS Daily Summary

Daily Weather History Graph

Daily Weather History Graph

Search for Another Location

Airport or City:

Trip Planner

Search our weather history database for the weather conditions in past years. The results will help you decide how hot, cold, wet, or windy it might be!

Date:

Astronomy

Sep. 19, 2013 Rise Set
Actual Time 7:03 AM CDT 7:23 PM CDT
Civil Twilight 6:33 AM CDT 7:53 PM CDT
Nautical Twilight 5:57 AM CDT 8:29 PM CDT
Astronomical Twilight 5:20 AM CDT 9:06 PM CDT
Moon 7:16 PM CDT (9/19) 7:17 AM CDT (9/19)
Length of Visible Light 13h 20m
Length of Day
12h 19m
Full, 100% of the Moon is Illuminated
Sep 19
Full
Sep 26
Last Quarter
Oct 4
New
Oct 11
First Quarter
Oct 18
Full

Hourly Weather History & Observations

Time (CDT) Temp. Dew Point Humidity Pressure Visibility Wind Dir Wind Speed Gust Speed Precip Events Conditions
12:53 AM 69.1 °F 66.9 °F 93% 29.69 in 4.0 mi SSE 5.8 mph - N/A   Overcast
1:32 AM 68.0 °F 66.2 °F 94% 29.71 in 3.0 mi West 4.6 mph - 0.00 in Rain Light Rain
1:43 AM 68.0 °F 66.2 °F 94% 29.72 in 3.0 mi SW 4.6 mph - 0.00 in Rain Light Rain
1:53 AM 68.0 °F 66.9 °F 96% 29.73 in 3.0 mi WSW 5.8 mph - 0.00 in Rain Light Rain
2:02 AM 66.2 °F 66.2 °F 100% 29.72 in 2.5 mi NNW 3.5 mph - 0.02 in Rain Rain
2:07 AM 68.0 °F 66.2 °F 94% 29.72 in 3.0 mi WNW 3.5 mph - 0.02 in Rain Light Rain
2:44 AM 66.2 °F 66.2 °F 100% 29.66 in 2.5 mi ENE 5.8 mph - 0.03 in Rain Light Rain
2:53 AM 66.9 °F 66.9 °F 100% 29.65 in 2.0 mi ESE 5.8 mph - 0.03 in Rain Light Rain
3:23 AM 66.2 °F 66.2 °F 100% 29.63 in 1.0 mi NNW 4.6 mph - 0.00 in   Clear
3:25 AM 64.4 °F 64.4 °F 100% 29.63 in 0.5 mi NW 6.9 mph - 0.00 in Fog Fog
3:33 AM 64.4 °F 64.4 °F 100% 29.62 in 0.2 mi NNW 3.5 mph - 0.00 in Fog Fog
3:53 AM 64.0 °F 63.0 °F 96% 29.62 in 0.2 mi ESE 3.5 mph - 0.00 in Fog Fog
4:06 AM 66.2 °F 66.2 °F 100% 29.65 in 0.2 mi SE 8.1 mph - N/A Fog Fog
4:12 AM 66.2 °F 66.2 °F 100% 29.64 in 0.5 mi SE 12.7 mph - N/A Fog Fog
4:19 AM 66.2 °F 66.2 °F 100% 29.65 in 2.0 mi SE 11.5 mph - N/A   Mostly Cloudy
4:24 AM 66.2 °F 66.2 °F 100% 29.65 in 3.0 mi SE 11.5 mph - N/A   Mostly Cloudy
4:39 AM 66.2 °F 66.2 °F 100% 29.64 in 3.0 mi SE 9.2 mph - N/A   Partly Cloudy
4:53 AM 66.0 °F 66.0 °F 100% 29.63 in 3.0 mi SE 8.1 mph - N/A   Scattered Clouds
5:00 AM 66.2 °F 66.2 °F 100% 29.64 in 2.5 mi SE 10.4 mph - N/A   Mostly Cloudy
5:12 AM 66.2 °F 66.2 °F 100% 29.65 in 1.0 mi SE 10.4 mph - N/A   Overcast
5:19 AM 66.2 °F 66.2 °F 100% 29.64 in 0.5 mi SE 8.1 mph - N/A Fog Fog
5:53 AM 66.0 °F 66.0 °F 100% 29.65 in 0.5 mi SE 6.9 mph - N/A Fog Fog
6:30 AM 66.2 °F 66.2 °F 100% 29.66 in 0.2 mi Calm Calm - N/A Fog Fog
6:53 AM 66.0 °F 66.0 °F 100% 29.66 in 0.2 mi Calm Calm - N/A Fog Fog
7:16 AM 66.2 °F 66.2 °F 100% 29.66 in 0.5 mi Calm Calm - N/A Fog Fog
7:26 AM 66.2 °F 66.2 °F 100% 29.66 in 0.2 mi Calm Calm - N/A Fog Fog
7:53 AM 64.9 °F 64.9 °F 100% 29.66 in 0.2 mi Calm Calm - N/A Fog Fog
8:53 AM 66.0 °F 66.0 °F 100% 29.65 in 0.2 mi North 4.6 mph - N/A Fog Fog
9:18 AM 66.2 °F 66.2 °F 100% 29.66 in 1.0 mi NNE 3.5 mph - N/A   Mist
9:30 AM 66.2 °F 66.2 °F 100% 29.66 in 2.5 mi North 4.6 mph - N/A   Mostly Cloudy
9:37 AM 66.2 °F 66.2 °F 100% 29.67 in 3.0 mi Calm Calm - N/A   Mostly Cloudy
9:48 AM 66.2 °F 66.2 °F 100% 29.68 in 3.0 mi North 3.5 mph - 0.00 in Rain Light Rain
9:53 AM 66.0 °F 66.0 °F 100% 29.68 in 3.0 mi North 3.5 mph - 0.00 in Rain Light Rain
10:22 AM 66.2 °F 66.2 °F 100% 29.71 in 2.5 mi NW 5.8 mph - 0.01 in   Mostly Cloudy
10:36 AM 66.2 °F 66.2 °F 100% 29.70 in 3.0 mi NW 4.6 mph - 0.01 in Rain Light Rain
10:49 AM 66.2 °F 66.2 °F 100% 29.74 in 5.0 mi South 8.1 mph - 0.01 in   Overcast
10:53 AM 66.9 °F 66.0 °F 97% 29.73 in 4.0 mi South 5.8 mph - 0.01 in Rain Light Rain
11:29 AM 66.2 °F 66.2 °F 100% 29.72 in 4.0 mi WSW 4.6 mph - 0.03 in Rain Light Rain
11:53 AM 66.0 °F 66.0 °F 100% 29.73 in 4.0 mi SW 5.8 mph - 0.04 in Rain Light Rain
12:03 PM 66.2 °F 64.4 °F 94% 29.74 in 5.0 mi SW 5.8 mph - 0.00 in Rain Light Rain
12:42 PM 64.4 °F 64.4 °F 100% 29.74 in 5.0 mi West 6.9 mph - 0.03 in Rain Light Rain
12:53 PM 64.9 °F 64.0 °F 97% 29.73 in 9.0 mi West 6.9 mph - 0.03 in   Overcast
1:53 PM 64.9 °F 64.0 °F 97% 29.72 in 3.0 mi WNW 11.5 mph - 0.00 in   Overcast
2:53 PM 64.9 °F 63.0 °F 93% 29.73 in 7.0 mi WNW 19.6 mph 23.0 mph N/A   Overcast
3:53 PM 64.9 °F 61.0 °F 87% 29.74 in 10.0 mi WNW 11.5 mph - N/A   Overcast
4:03 PM 64.4 °F 60.8 °F 88% 29.75 in 10.0 mi WNW 8.1 mph - N/A   Overcast
4:53 PM 71.1 °F 59.0 °F 66% 29.73 in 10.0 mi WNW 12.7 mph 20.7 mph N/A   Mostly Cloudy
5:26 PM 69.8 °F 57.2 °F 64% 29.74 in 10.0 mi WNW 16.1 mph - N/A   Partly Cloudy
5:53 PM 68.0 °F 55.0 °F 63% 29.74 in 10.0 mi WNW 16.1 mph 21.9 mph N/A   Clear
6:53 PM 64.0 °F 55.0 °F 73% 29.77 in 10.0 mi WNW 9.2 mph - N/A   Clear
7:53 PM 57.9 °F 54.0 °F 87% 29.80 in 10.0 mi WSW 4.6 mph - N/A   Partly Cloudy
8:53 PM 55.9 °F 54.0 °F 93% 29.80 in 10.0 mi WSW 5.8 mph - N/A   Clear
9:53 PM 57.9 °F 55.0 °F 90% 29.80 in 10.0 mi West 9.2 mph - N/A   Mostly Cloudy
10:44 PM 57.2 °F 53.6 °F 88% 29.80 in 10.0 mi WNW 6.9 mph - N/A   Mostly Cloudy
10:53 PM 59.0 °F 54.0 °F 83% 29.80 in 10.0 mi WNW 6.9 mph - N/A   Overcast
11:53 PM 57.0 °F 54.0 °F 89% 29.81 in 10.0 mi NW 8.1 mph - N/A   Mostly Cloudy